Regional Weather Roundup
Issued by NWS

Home | Current Version | Previous Version | Text Only | Print | Product List | Glossary Off
Versions: 1 2 3 4 5 6 7 8 9 10 11 12 13 14 15 16 17 18 19 20 21 22 23 24 25 26 27 28 29 30 31 32 33 34 35 36 37 38 39 40 41 42 43 44 45 46 47 48 49 50

000
ASUS43 KIND 111309
RWRIN

WEATHER ROUNDUP FOR INDIANA
NATIONAL WEATHER SERVICE INDIANAPOLIS IN
900 AM EDT FRI JUL 11 2014

NOTE: "FAIR" INDICATES FEW OR NO CLOUDS BELOW 12,000 FEET WITH NO
SIGNIFICANT WEATHER AND/OR OBSTRUCTIONS TO VISIBILITY.

* - STATION DOES NOT REPORT WEATHER SUCH AS PRECIPITATION OR FOG.

+ - STATION NOT QUALITY CONTROLLED BY THE NATIONAL WEATHER SERVICE.
    USE DATA WITH CAUTION...ESPECIALLY DEWPOINT AND RELATIVE
    HUMIDITY OBSERVATIONS.

INZ001>003-010>013-019-020-111400-
NORTHWEST INDIANA

CITY           SKY/WX    TMP DP  RH WIND       PRES   REMARKS
GARY /AIRPORT/ MOSUNNY   66  57  72 CALM      30.23R
KNOX *+        SUNNY     63  55  76 CALM      30.22R
LA PORTE +     SUNNY     64  57  78 CALM      30.24R
MICHIGAN CITY+ SUNNY     66  57  72 CALM      30.23R
MONTICELLO +   SUNNY     65  57  75 CALM      30.22R
RENSSELAER +   SUNNY     64  61  88 CALM      30.22S
VALPARAISO     SUNNY     65  57  75 CALM      30.23R

$$

LMZ046-743>745-111400-
SOUTHERN LAKE MICHIGAN

STATION/POSITION TIME  TEMP WIND        PRES
                       AIR  DIR/SP/G
                 (UTC) (F)  (DEG/KT/KT) (MB)
MICHIGAN CITY    1300   67  130/  6/  8   N/A

$$

INZ004-005-014>016-021>024-111400-
NORTH CENTRAL INDIANA

CITY           SKY/WX    TMP DP  RH WIND       PRES   REMARKS
ELKHART        SUNNY     64  57  77 CALM      30.23R
GOSHEN         SUNNY     67  60  78 E3        30.22S
LOGANSPORT +   MOSUNNY   64  55  72 E3        30.23R
PERU/GRISSOM   MOSUNNY   67  62  85 VRB3      30.22R
ROCHESTER +    SUNNY     68  57  68 CALM      30.23S
SOUTH BEND     SUNNY     67  58  72 SE5       30.23S
WARSAW +       MOSUNNY   64  59  82 CALM      30.23R

$$

INZ006>009-017-018-025>027-111400-
NORTHEAST INDIANA

CITY           SKY/WX    TMP DP  RH WIND       PRES   REMARKS
ANGOLA *+      SUNNY     68  59  73 SE5       30.23S
AUBURN +       SUNNY     68  59  73 E6        30.24S
FORT WAYNE     MOSUNNY   66  59  78 E6        30.23R
HUNTINGTON +   SUNNY     65  59  82 CALM      30.22S

$$

INZ028-029-035-036-043>045-051>053-111400-
WEST CENTRAL INDIANA

CITY           SKY/WX    TMP DP  RH WIND       PRES   REMARKS
GREENCASTLE +  SUNNY     64  59  82 CALM      30.23R
LAFAYETTE      SUNNY     65  59  81 CALM      30.22R
TERRE HAUTE    MOSUNNY   66  58  75 E3        30.22R

$$

INZ030>032-037>040-046>048-054>057-064-065-111400-
CENTRAL INDIANA

CITY           SKY/WX    TMP DP  RH WIND       PRES   REMARKS
ANDERSON       SUNNY     66  57  72 CALM      30.24
CP ATTERBURY + MOSUNNY   66  57  72 CALM      30.23R
FRANKFORT +    MOSUNNY   66  59  77 CALM      30.24
GREENWOOD *+   MOSUNNY   73  59  60 E7        30.23R
INDIANAPOLIS   MOSUNNY   66  55  67 SE5       30.21R
-EAGLE CREEK   MOSUNNY   67  56  67 E3        30.21S
KOKOMO *+      MOSUNNY   64  57  77 SE5       30.23S
MARION +       SUNNY     64  57  78 CALM      30.23S
MT COMFORT *+  MOSUNNY   70  63  78 E5        30.22S
SHELBYVILLE    MOSUNNY   70  60  70 E6        30.22R
ZIONSVILLE +   MOSUNNY   67  57  69 CALM      30.23S

$$

INZ033-034-041-042-049-050-058-059-111400-
EAST CENTRAL INDIANA

CITY           SKY/WX    TMP DP  RH WIND       PRES   REMARKS
MUNCIE         SUNNY     67  57  70 E3        30.24R

$$

INZ060-061-067>069-081>083-085>088-111400-
SOUTHWEST INDIANA

CITY           SKY/WX    TMP DP  RH WIND       PRES   REMARKS
EVANSVILLE     SUNNY     70  60  70 NE6       30.21R
HUNTINGBURG *+ SUNNY     70  61  73 E3        30.21R
WASHINGTON +   MOSUNNY   66  61  84 SE3       30.20S

$$

INZ062-063-066-070>080-084-089>092-111400-
SOUTH CENTRAL AND SOUTHEAST INDIANA

CITY           SKY/WX    TMP DP  RH WIND       PRES   REMARKS
BEDFORD +      MOSUNNY   70  55  60 E6        30.21R
BLOOMINGTON    SUNNY     68  56  65 E6        30.22R
NORTH VERNON + SUNNY     68  59  73 NE6       30.22R
SEYMOUR +      MOSUNNY   66  45  45 CALM      30.22R

$$




USA.gov is the U.S. government's official web portal to all federal, state and local government web resources and services.